Temp
-7 -6 -6 -6 -6 -6 -6 -6 -6 -6 -6 -6 -6 -6 -6 -6 -6 -6 -6 -6 -6 -7 -7 -7 -7 -7 -7 -7 -7 -7 -7 -7 -8 -8 -8 -8 -8 -8 -8 -8 -8 -7 -8
-6 -6 -6 -6 -6 -6 -6 -6 -6 -7 -7 -6 -6 -6 -6 -6 -6 -6 -6 -6 -6 -7 -7 -7 -7 -7 -7 -7 -7 -7 -7 -7 -7 -8 -8 -8 -8 -8 -8 -8 -8 -8 -8
-6 -6 -6 -6 -6 -5 -6 -6 -6 -6 -6 -6 -7 -6 -7 -6 -6 -6 -6 -6 -7 -7 -7 -7 -7 -7 -7 -7 -7 -8 -8 -8 -8 -8 -8 -8 -8 -8 -8 -8 -8 -8 -8
-7 -6 -6 -6 -5 -5 -6 -6 -6 -6 -6 -6 -6 -6 -6 -6 -6 -6 -6 -7 -7 -7 -7 -7 -7 -7 -7 -8 -8 -8 -8 -8 -8 -8 -8 -8 -8 -8 -8 -8 -8 -8 -8
-6 -6 -6 -7 -7 -7 -6 -6 -6 -6 -6 -6 -6 -6 -6 -6 -6 -7 -7 -7 -7 -7 -7 -7 -7 -7 -8 -8 -8 -8 -8 -8 -8 -8 -8 -8 -8 -8 -8 -8 -8 -8 -8
-6 -6 -7 -7 -6 -7 -6 -6 -6 -6 -6 -6 -6 -6 -6 -7 -7 -7 -7 -7 -7 -7 -7 -7 -7 -8 -8 -8 -8 -8 -8 -8 -8 -8 -8 -8 -8 -8 -8 -8 -8 -8 -8
-6 -6 -7 -7 -7 -7 -7 -6 -6 -6 -6 -6 -6 -6 -7 -7 -7 -6 -7 -7 -7 -7 -7 -7 -7 -7 -7 -7 -8 -8 -8 -8 -8 -8 -8 -8 -8 -8 -8 -8 -8 -8 -8
-6 -6 -7 -7 -7 -7 -7 -6 -6 -6 -6 -6 -6 -6 -7 -6 -6 -7 -7 -7 -7 -7 -7 -7 -7 -7 -7 -7 -7 -7 -8 -8 -8 -8 -8 -8 -8 -8 -8 -8 -8 -8 -8
-6 -6 -7 -7 -6 -7 -6 -6 -6 -6 -6 -6 -6 -6 -6 -6 -6 -7 -7 -6 -7 -7 -7 -7 -7 -7 -7 -7 -7 -7 -7 -7 -8 -8 -8 -8 -8 -9 -8 -8 -8 -8 -8
-6 -7 -7 -7 -7 -7 -6 -6 -6 -6 -6 -6 -6 -6 -6 -6 -6 -6 -6 -6 -6 -7 -7 -7 -7 -6 -7 -7 -7 -7 -7 -7 -7 -8 -8 -8 -8 -9 -8 -8 -8 -8 -8
-7 -7 -7 -7 -7 -7 -6 -6 -6 -6 -6 -6 -6 -6 -6 -6 -6 -6 -6 -6 -6 -6 -6 -6 -6 -6 -6 -6 -6 -6 -6 -7 -7 -8 -8 -8 -8 -8 -9 -9 -8 -8 -9
-7 -7 -7 -6 -6 -7 -7 -7 -6 -6 -7 -6 -6 -6 -6 -6 -6 -6 -6 -6 -6 -6 -6 -6 -6 -6 -6 -6 -6 -6 -6 -7 -7 -7 -7 -8 -9 -8 -8 -9 -9 -9 -8
-6 -6 -7 -7 -7 -7 -7 -7 -7 -7 -7 -7 -7 -6 -6 -6 -6 -6 -6 -6 -6 -6 -6 -6 -6 -6 -5 -6 -6 -6 -6 -6 -7 -7 -7 -7 -8 -8 -8 -8 -9 -9 -9
-7 -7 -7 -6 -6 -6 -7 -7 -7 -7 -7 -7 -7 -6 -6 -6 -6 -6 -6 -6 -6 -6 -6 -6 -6 -6 -5 -5 -5 -6 -6 -6 -6 -7 -6 -7 -7 -7 -8 -8 -9 -9 -9
-6 -6 -7 -7 -7 -6 -6 -6 -6 -7 -7 -7 -7 -6 -6 -6 -6 -6 -6 -6 -6 -6 -6 -6 -6 -6 -6 -6 -6 -6 -6 -6 -6 -6 -7 -7 -7 -7 -8 -7 -8 -9 -9
-6 -6 -6 -6 -6 -6 -6 -6 -6 -6 -6 -6 -6 -6 -6 -6 -6 -6 -6 -6 -6 -6 -6 -6 -6 -6 -6 -6 -6 -6 -6 -6 -6 -6 -7 -7 -6 -6 -7 -7 -7 -7 -7
-6 -6 -6 -6 -6 -6 -6 -6 -6 -6 -6 -6 -6 -6 -6 -6 -6 -6 -6 -5 -5 -5 -6 -5 -6 -6 -6 -6 -6 -6 -6 -6 -6 -6 -6 -6 -6 -7 -7 -6 -7 -8 -7
-6 -6 -6 -6 -6 -6 -6 -6 -6 -6 -6 -6 -6 -6 -6 -6 -6 -6 -6 -6 -6 -5 -5 -6 -6 -6 -6 -7 -6 -6 -6 -6 -6 -6 -6 -6 -6 -6 -7 -7 -7 -7 -7
-6 -6 -6 -6 -6 -6 -6 -7 -7 -6 -6 -6 -6 -7 -6 -6 -6 -6 -6 -6 -6 -6 -6 -6 -6 -6 -6 -6 -6 -6 -6 -6 -6 -6 -6 -6 -6 -6 -7 -7 -6 -7 -7
-7 -7 -7 -7 -6 -6 -6 -6 -6 -6 -6 -6 -6 -6 -6 -6 -7 -7 -6 -6 -6 -6 -6 -6 -6 -6 -6 -6 -6 -6 -6 -6 -6 -6 -6 -6 -6 -7 -6 -7 -7 -7 -7
-7 -7 -7 -7 -7 -7 -7 -6 -6 -7 -7 -7 -7 -6 -6 -6 -6 -7 -6 -6 -6 -6 -6 -6 -6 -6 -6 -6 -6 -6 -6 -6 -6 -6 -6 -6 -7 -6 -6 -6 -6 -6 -7
-7 -8 -7 -7 -7 -7 -7 -7 -7 -7 -7 -7 -7 -7 -6 -7 -7 -7 -7 -6 -6 -6 -6 -6 -6 -6 -6 -6 -6 -6 -6 -6 -6 -6 -6 -7 -6 -6 -7 -6 -6 -6 -7
-7 -7 -7 -8 -8 -8 -7 -7 -7 -7 -7 -7 -7 -6 -6 -7 -7 -7 -7 -7 -7 -7 -6 -7 -7 -6 -6 -6 -6 -6 -6 -6 -6 -6 -6 -6 -6 -6 -7 -6 -6 -6 -6
-7 -7 -7 -8 -8 -8 -7 -8 -8 -8 -8 -8 -8 -7 -7 -8 -8 -8 -7 -7 -7 -7 -6 -6 -6 -6 -6 -6 -6 -6 -6 -6 -6 -6 -6 -6 -6 -6 -6 -6 -6 -6 -6
-8 -7 -6 -6 -7 -8 -8 -8 -8 -8 -8 -8 -8 -8 -8 -8 -8 -8 -8 -7 -7 -7 -7 -6 -6 -6 -6 -6 -6 -6 -6 -6 -6 -6 -6 -6 -6 -6 -6 -6 -6 -6 -6
-8 -8 -8 -8 -7 -7 -7 -8 -8 -8 -8 -8 -8 -8 -8 -9 -8 -8 -7 -7 -7 -8 -7 -7 -7 -7 -7 -7 -6 -6 -6 -6 -7 -7 -7 -7 -7 -7 -6 -6 -6 -6 -6
Height
5905 5906 5907 5907 5907 5907 5907 5908 5908 5910 5911 5913 5914 5916 5918 5918 5919 5919 5921 5921 5920 5921 5922 5921 5921 5921 5922 5922 5923 5924 5924 5925 5924 5924 5924 5924 5924 5923 5921 5920 5920 5920 5920
5907 5907 5907 5908 5908 5909 5909 5910 5911 5913 5914 5916 5917 5919 5921 5921 5922 5923 5924 5924 5923 5923 5924 5924 5923 5924 5925 5925 5925 5926 5926 5927 5926 5926 5927 5926 5925 5925 5924 5923 5923 5923 5922
5908 5908 5908 5908 5909 5910 5910 5913 5914 5916 5917 5919 5921 5924 5924 5925 5926 5926 5926 5926 5926 5926 5927 5927 5927 5927 5927 5927 5928 5928 5929 5929 5928 5928 5928 5929 5928 5927 5926 5926 5925 5925 5924
5909 5909 5909 5908 5908 5908 5911 5915 5918 5919 5921 5923 5925 5926 5927 5927 5928 5929 5929 5928 5929 5929 5929 5929 5930 5930 5931 5930 5930 5930 5930 5930 5930 5930 5930 5929 5929 5929 5928 5928 5928 5928 5927
5911 5911 5911 5910 5910 5910 5913 5917 5921 5923 5925 5927 5928 5929 5930 5930 5930 5930 5930 5931 5932 5932 5931 5931 5931 5932 5932 5931 5931 5932 5932 5932 5932 5932 5932 5931 5930 5931 5930 5930 5930 5931 5930
5912 5913 5913 5912 5915 5915 5918 5922 5924 5925 5927 5929 5930 5931 5932 5932 5932 5931 5931 5933 5933 5934 5934 5934 5933 5933 5933 5932 5932 5932 5933 5933 5933 5933 5933 5933 5932 5932 5931 5931 5932 5932 5931
5913 5915 5916 5916 5918 5919 5922 5925 5926 5927 5929 5932 5933 5934 5934 5935 5934 5934 5934 5934 5934 5936 5935 5936 5936 5935 5935 5934 5933 5932 5932 5933 5933 5934 5934 5933 5934 5934 5933 5932 5933 5933 5933
5914 5917 5919 5920 5922 5924 5925 5927 5929 5930 5933 5935 5936 5937 5937 5937 5936 5936 5936 5936 5938 5938 5938 5939 5937 5936 5935 5934 5934 5933 5932 5932 5933 5933 5934 5934 5934 5935 5935 5934 5933 5934 5934
5919 5921 5922 5923 5926 5928 5929 5930 5932 5934 5935 5937 5938 5938 5938 5939 5939 5939 5939 5939 5940 5940 5940 5940 5937 5938 5937 5934 5933 5932 5932 5933 5933 5933 5933 5933 5934 5934 5935 5935 5934 5934 5934
5924 5923 5926 5927 5929 5931 5932 5934 5936 5937 5937 5938 5940 5939 5940 5940 5940 5941 5941 5942 5942 5942 5941 5940 5939 5937 5934 5934 5933 5933 5932 5933 5934 5933 5932 5933 5933 5934 5935 5935 5935 5935 5935
5927 5928 5929 5929 5931 5933 5935 5937 5937 5938 5939 5940 5941 5941 5942 5942 5942 5942 5943 5943 5944 5943 5943 5942 5941 5937 5935 5934 5934 5931 5932 5933 5934 5933 5932 5933 5934 5935 5935 5935 5934 5934 5935
5930 5931 5932 5934 5934 5936 5938 5939 5940 5940 5941 5942 5943 5943 5944 5945 5945 5945 5945 5945 5946 5945 5945 5944 5943 5941 5939 5938 5936 5935 5934 5933 5933 5931 5930 5931 5931 5933 5933 5933 5934 5934 5934
5933 5934 5935 5937 5937 5938 5939 5940 5941 5941 5943 5944 5945 5946 5946 5947 5947 5948 5948 5948 5948 5948 5947 5946 5945 5943 5942 5942 5940 5938 5937 5935 5934 5933 5931 5930 5929 5929 5932 5932 5932 5933 5933
5935 5937 5938 5939 5941 5941 5941 5941 5943 5943 5944 5945 5946 5948 5949 5949 5950 5950 5950 5950 5950 5950 5949 5948 5946 5945 5944 5943 5942 5941 5940 5938 5936 5934 5932 5932 5931 5928 5927 5930 5931 5931 5932
5937 5939 5940 5941 5942 5943 5943 5944 5945 5945 5946 5947 5947 5949 5950 5951 5951 5951 5952 5952 5952 5952 5951 5949 5947 5945 5944 5943 5942 5940 5940 5938 5935 5934 5933 5932 5931 5929 5927 5927 5927 5928 5929
5940 5941 5942 5943 5944 5945 5946 5946 5947 5948 5949 5948 5948 5949 5951 5951 5951 5952 5952 5953 5953 5952 5951 5949 5947 5946 5944 5944 5943 5942 5941 5939 5936 5935 5933 5932 5930 5929 5928 5928 5927 5925 5925
5942 5943 5945 5945 5945 5947 5948 5948 5948 5950 5951 5950 5949 5950 5951 5951 5951 5952 5952 5953 5954 5953 5951 5950 5949 5947 5946 5944 5943 5943 5941 5939 5936 5935 5934 5932 5931 5930 5930 5928 5928 5926 5926
5945 5945 5946 5947 5947 5947 5948 5949 5950 5951 5951 5951 5952 5952 5952 5952 5952 5952 5953 5953 5953 5952 5952 5951 5950 5948 5946 5943 5944 5943 5942 5940 5938 5935 5935 5934 5933 5931 5930 5929 5928 5927 5925
5945 5945 5946 5947 5947 5948 5949 5949 5950 5951 5951 5951 5952 5952 5952 5951 5951 5953 5953 5953 5952 5951 5950 5949 5948 5948 5946 5945 5945 5945 5944 5942 5940 5939 5937 5936 5934 5932 5930 5929 5928 5927 5926
5946 5945 5946 5947 5947 5947 5948 5949 5949 5950 5951 5950 5951 5951 5952 5951 5951 5952 5953 5953 5952 5951 5949 5948 5948 5947 5946 5945 5944 5945 5944 5943 5941 5940 5939 5938 5936 5934 5931 5929 5929 5928 5926
5948 5947 5947 5947 5947 5948 5948 5948 5949 5949 5949 5949 5950 5950 5950 5951 5951 5950 5951 5951 5950 5950 5950 5949 5947 5947 5946 5945 5944 5943 5943 5942 5940 5940 5938 5937 5935 5933 5932 5930 5929 5927 5926
5949 5949 5951 5950 5948 5948 5948 5948 5948 5948 5947 5948 5947 5948 5948 5948 5948 5947 5948 5948 5948 5947 5947 5947 5947 5946 5945 5944 5944 5943 5941 5941 5939 5938 5937 5936 5934 5932 5930 5928 5927 5926 5924
5952 5950 5951 5953 5954 5952 5950 5950 5949 5950 5949 5948 5946 5945 5945 5945 5945 5946 5946 5946 5947 5947 5945 5945 5944 5944 5943 5942 5942 5940 5938 5938 5938 5937 5936 5934 5932 5931 5929 5927 5925 5925 5924
5955 5953 5952 5953 5955 5956 5955 5951 5949 5948 5947 5946 5946 5944 5943 5944 5944 5944 5944 5943 5943 5943 5943 5942 5940 5940 5940 5939 5938 5937 5937 5936 5936 5936 5934 5932 5930 5929 5928 5927 5925 5924 5922
5956 5955 5954 5953 5953 5952 5951 5951 5948 5946 5945 5944 5943 5942 5941 5941 5940 5942 5942 5941 5941 5940 5940 5941 5940 5939 5939 5937 5935 5935 5934 5934 5934 5933 5932 5930 5928 5926 5925 5925 5923 5921 5920
5955 5953 5953 5952 5951 5950 5948 5948 5947 5945 5943 5941 5941 5940 5939 5938 5938 5939 5939 5938 5937 5936 5935 5935 5934 5934 5934 5934 5933 5932 5930 5930 5930 5929 5928 5927 5926 5924 5922 5922 5920 5918 5917
Wind_Speed
11 10 11 12 12 11 12 13 15 13 12 11 12 14 14 15 14 15 13 14 15 14 13 14 14 13 12 11 11 10 9 8 10 10 8 10 12 12 14 14 13 13 12
9 9 9 9 10 10 10 14 14 12 15 14 17 17 14 14 14 13 13 14 13 13 12 13 13 11 10 9 8 8 6 7 9 8 8 8 9 11 13 14 13 13 13
8 9 7 6 6 9 12 17 16 14 18 19 18 16 14 13 12 14 14 13 13 12 13 12 11 9 7 7 6 5 7 7 8 7 7 7 8 9 10 12 12 12 11
7 8 7 6 4 9 21 22 23 24 23 20 18 17 14 14 14 12 13 13 13 13 13 11 9 7 7 7 5 3 7 7 6 5 6 8 7 7 9 10 11 11 11
7 6 7 12 15 28 31 25 26 24 23 20 18 16 14 13 12 12 13 13 12 13 12 10 8 6 7 8 6 5 4 5 5 5 6 8 7 5 9 9 9 10 11
7 9 10 12 23 28 28 27 25 23 20 19 17 16 16 17 16 14 14 12 13 13 10 9 8 7 8 6 7 6 5 5 4 4 5 5 6 6 6 7 7 9 11
10 18 20 25 31 26 26 24 23 22 19 17 17 16 15 15 15 15 13 13 14 12 10 10 10 8 9 6 6 4 3 3 4 2 2 3 3 4 5 7 8 7 9
19 24 21 28 26 26 24 24 22 21 19 18 16 15 14 15 15 13 14 12 13 13 9 11 8 8 9 8 5 2 1 3 2 2 1 2 3 2 3 5 6 7 8
23 22 22 24 23 24 23 22 20 19 18 16 14 15 15 17 16 15 17 15 13 12 9 9 9 9 8 6 5 3 5 2 4 5 5 4 3 2 1 1 3 5 6
22 21 23 24 22 22 22 19 18 18 17 16 15 14 15 14 13 13 14 16 15 13 12 13 15 13 10 2 4 3 4 3 3 6 5 6 6 5 3 1 2 3 5
23 20 22 24 23 21 20 18 18 17 15 15 14 14 14 14 13 11 12 13 11 11 12 15 16 17 19 13 11 5 4 3 4 6 7 8 7 6 5 3 2 3 3
25 26 24 21 21 20 20 18 17 16 15 13 14 15 16 14 15 17 16 15 13 13 15 17 18 21 18 17 17 18 12 10 9 6 4 8 8 10 9 8 6 4 3
22 22 22 19 19 20 18 17 16 15 14 12 12 13 14 13 16 17 16 16 15 14 14 15 16 16 17 15 17 14 14 10 11 12 16 2 9 8 11 10 9 8 6
20 20 19 18 16 16 16 16 15 14 12 10 12 12 13 14 16 18 16 17 16 16 16 15 15 16 14 15 13 13 11 9 9 9 11 11 14 13 7 12 11 12 11
17 17 17 15 13 12 13 14 14 14 11 9 10 11 10 11 12 13 15 15 16 14 14 13 15 14 15 16 16 13 9 9 11 12 11 7 11 6 7 11 12 12 13
13 12 12 11 10 9 9 10 11 11 11 10 10 10 9 8 9 10 13 11 11 11 11 13 12 10 11 11 10 13 9 10 12 10 11 6 9 6 6 2 12 14 9
11 11 10 9 9 8 7 8 10 9 7 8 8 7 7 7 6 8 9 9 7 6 9 10 10 10 12 8 7 11 9 10 13 7 11 9 4 4 6 5 6 6 16
9 9 9 7 9 8 7 8 8 8 7 5 4 5 5 4 4 3 4 3 3 4 7 8 9 10 12 13 5 7 10 8 9 8 11 8 10 8 3 4 4 10 11
10 8 7 7 6 6 7 8 7 5 5 4 3 1 0 1 1 1 2 3 3 3 4 6 8 8 9 8 5 7 8 6 7 7 7 7 7 7 5 8 3 2 8
10 9 7 5 6 6 6 6 6 4 4 4 3 4 4 3 4 4 3 4 5 6 5 5 5 5 6 6 4 4 8 4 6 6 7 8 7 5 6 8 6 5 8
13 11 9 6 5 4 4 4 4 4 2 3 5 7 7 7 7 7 9 9 7 7 8 7 6 5 5 6 5 5 3 4 6 5 7 9 7 6 8 7 7 9 8
12 10 8 7 6 6 6 5 4 3 2 5 7 10 10 8 8 10 11 11 10 10 9 8 9 8 7 7 6 6 8 8 8 6 5 6 8 8 8 7 7 7 5
13 13 8 5 1 2 4 5 5 4 3 0 4 9 12 11 10 10 11 10 10 11 10 9 9 10 9 9 9 8 10 10 10 9 7 6 8 10 9 7 8 7 8
10 14 14 12 9 6 5 8 8 6 6 5 2 0 5 8 9 11 12 11 12 12 14 13 12 12 13 12 11 11 11 11 11 11 11 11 9 12 12 11 11 11 9
7 6 6 7 3 2 1 1 3 5 5 4 4 2 2 5 8 10 12 14 14 15 15 16 15 14 16 16 15 14 14 13 13 12 13 13 12 13 12 10 10 11 11
4 3 5 2 4 6 6 5 5 5 5 5 5 3 4 6 9 10 11 13 14 17 18 18 18 17 16 19 19 18 16 16 15 14 14 14 13 12 9 12 15 16 14
Wind_Direction
116 110 113 117 119 122 116 114 120 119 111 102 100 108 100 92 93 90 85 84 86 98 103 102 103 101 107 106 102 98 103 101 87 76 77 80 77 76 76 69 69 69 75
122 118 118 126 128 124 130 121 126 122 119 109 112 103 98 98 92 91 87 81 86 91 96 104 103 102 96 94 95 94 90 82 81 76 85 85 80 78 75 74 71 67 71
113 108 114 118 142 148 149 133 119 116 124 117 111 107 108 101 100 91 83 88 85 86 86 84 86 90 93 92 86 89 103 86 82 87 81 72 70 73 72 69 66 66 70
113 108 102 89 83 140 141 129 115 114 117 114 111 112 108 101 93 94 93 91 84 83 80 79 73 64 63 53 44 115 99 89 75 82 86 76 59 72 78 74 60 62 66
136 122 90 100 96 118 129 124 118 120 115 116 108 103 97 96 97 97 92 87 88 86 83 81 80 71 64 65 80 83 120 95 90 79 79 77 79 85 83 78 64 61 64
157 144 104 107 125 120 120 119 116 112 105 102 102 99 97 87 88 102 94 91 88 82 79 68 70 82 79 75 85 86 94 79 66 78 76 69 79 99 96 89 72 62 66
143 131 108 111 113 116 115 112 105 102 100 100 101 96 94 90 86 92 97 86 84 86 77 65 59 59 64 59 63 92 99 90 72 50 98 102 82 94 98 94 85 74 68
136 125 107 112 113 118 116 111 104 103 104 103 97 93 92 89 85 87 84 81 84 86 87 74 58 47 51 42 46 22 154 146 124 172 156 151 93 69 78 92 94 82 73
128 127 113 109 114 108 106 104 104 104 100 98 102 101 96 89 84 81 81 76 79 86 89 79 41 29 20 8 359 234 227 220 210 202 195 198 173 184 68 64 102 96 86
114 124 114 115 113 111 106 104 104 101 100 99 100 98 94 93 85 78 81 75 73 76 69 58 39 38 10 320 6 28 227 245 245 242 220 220 205 191 190 200 122 99 88
114 116 115 116 115 109 105 105 100 96 90 92 94 96 91 89 85 90 84 78 68 62 78 68 45 50 55 80 53 48 164 57 236 255 233 234 237 222 209 206 201 133 113
108 111 111 110 109 109 108 104 99 96 91 95 91 93 93 89 89 89 92 83 77 75 75 73 62 54 53 55 64 62 82 75 69 35 243 232 214 232 224 199 213 192 184
114 114 113 115 114 114 111 105 101 99 98 98 88 94 98 90 92 94 84 79 82 86 71 70 55 47 47 57 57 64 57 59 88 63 48 293 246 221 228 227 205 216 214
115 113 112 114 116 117 114 110 108 109 105 101 90 94 94 97 105 91 79 81 81 77 67 62 57 51 50 49 38 36 36 48 62 53 36 38 29 335 220 223 223 214 224
115 113 116 115 112 108 113 115 115 116 113 111 111 101 102 100 114 99 87 83 80 79 65 55 46 41 38 35 30 18 42 34 32 40 30 18 26 359 9 261 221 236 230
121 119 118 120 120 122 126 113 119 122 124 118 120 114 109 105 113 111 100 91 89 78 65 50 40 48 34 26 25 32 39 28 21 34 29 26 355 41 38 345 271 272 225
119 124 127 126 128 134 136 130 125 125 119 126 130 124 118 110 108 107 101 103 97 73 55 48 36 33 16 21 22 35 24 21 17 16 24 22 55 69 341 337 354 332 296
115 121 130 134 130 132 130 125 136 141 132 121 107 101 102 111 87 70 83 82 79 57 50 47 31 25 5 45 47 1 34 19 23 55 53 52 64 68 57 13 336 348 341
101 97 103 117 132 131 145 161 164 165 149 164 160 161 171 90 48 37 343 338 333 357 25 30 20 10 9 41 7 346 1 357 22 47 20 20 35 27 36 22 23 280 334
92 103 111 112 124 133 165 176 178 195 208 212 242 243 262 283 299 296 286 278 294 311 343 344 352 357 339 328 322 340 341 317 338 356 16 5 5 359 358 0 5 338 342
76 79 96 118 130 140 151 154 161 166 220 238 242 261 257 253 261 276 284 282 285 294 298 305 309 305 298 298 309 328 299 308 304 359 18 18 17 357 358 317 318 326 322
88 92 79 91 105 112 122 133 143 147 192 247 249 244 242 240 248 258 265 275 277 278 282 294 293 286 287 276 271 279 289 293 298 321 341 350 351 358 341 329 327 330 323
87 91 94 64 64 136 131 122 115 109 103 88 280 258 240 237 247 255 263 269 273 277 284 286 283 288 283 283 279 267 274 286 297 307 322 305 327 328 325 329 328 323 312
60 78 82 78 66 62 73 90 94 90 70 49 30 328 209 233 256 268 270 273 275 277 275 271 274 278 277 275 274 274 272 274 282 292 296 301 306 312 303 303 307 306 307
360 5 31 45 72 128 128 84 109 114 109 97 87 108 180 231 252 264 273 277 286 288 291 300 300 292 287 277 267 266 269 268 271 274 279 288 298 305 299 279 293 295 295
276 300 324 318 310 270 254 253 258 234 218 215 212 220 245 268 270 272 277 282 287 284 283 282 280 278 283 284 278 266 259 267 269 269 272 278 286 309 299 299 299 294 289